User: anonymous   Login
Location: Emblem
(62.4273°N, 6.4710°E)
Time: 10:41:43
(UTC+02:00)
Language:

UWE-3 - Orbit

View from above orbital plane
View from above orbital plane
View from above satellite
View from above satellite

Ground track
Ground track

The orbit data is extracted from the following two-line orbital elements,

1 39446U 13066AG  23275.81874797  .00008221  00000-0  98307-3 0  9995
2 39446  97.7463 227.2580 0064032 348.7259  11.2516 14.82941340530373
Epoch (UTC): 02 October 2023 19:38:59
Eccentricity: 0.0064032
inclination: 97.7463°
perigee height: 575 km
apogee height: 665 km
right ascension of ascending node: 227.2580°
argument of perigee: 348.7259°
revolutions per day: 14.82941340
mean anomaly at epoch: 11.2516°
orbit number at epoch: 53037

The dashed part of the orbit path shows where the satellite is in the earth's shadow,  

DLR